Fecha, hora, temperatura, viento dirección y velocidad, humedad y presión.

  • 13-12-2019 12:00:00 | 5.30°C | Oeste |47.00 km/h | 0.00% | 846.20 hPa
  • 13-12-2019 11:00:00 | 5.20°C | Oeste |55.00 km/h | 0.00% | 845.60 hPa
  • 13-12-2019 10:00:00 | 5.20°C | Oeste |49.00 km/h | 0.00% | 845.10 hPa
  • 13-12-2019 09:00:00 | 5.10°C | Oeste |49.00 km/h | 0.00% | 844.60 hPa
  • 13-12-2019 08:00:00 | 5.10°C | Oeste |52.00 km/h | 0.00% | 843.90 hPa
  • 13-12-2019 07:00:00 | 5.30°C | Noroeste |55.00 km/h | 0.00% | 842.90 hPa
  • 13-12-2019 06:00:00 | 5.20°C | Noroeste |58.00 km/h | 0.00% | 842.30 hPa
  • 13-12-2019 05:00:00 | 5.30°C | Oeste |49.00 km/h | 0.00% | 842.40 hPa
  • 13-12-2019 04:00:00 | 5.60°C | Noroeste |49.00 km/h | 0.00% | 841.90 hPa
  • 13-12-2019 03:00:00 | 5.50°C | Oeste |42.00 km/h | 0.00% | 842.00 hPa
  • 13-12-2019 02:00:00 | 5.50°C | Noroeste |53.00 km/h | 0.00% | 842.00 hPa
  • 13-12-2019 01:00:00 | 5.20°C | Oeste |47.00 km/h | 0.00% | 842.40 hPa
  • 13-12-2019 00:00:00 | 5.70°C | Oeste |49.00 km/h | 0.00% | 842.10 hPa
  • 12-12-2019 23:00:00 | 5.30°C | Oeste |39.00 km/h | 0.00% | 841.70 hPa
  • 12-12-2019 22:00:00 | 5.20°C | Oeste |40.00 km/h | 0.00% | 841.70 hPa
  • 12-12-2019 21:00:00 | 5.20°C | Oeste |40.00 km/h | 94.00% | 841.40 hPa
  • 12-12-2019 20:00:00 | 5.00°C | Oeste |44.00 km/h | 94.00% | 841.80 hPa
  • 12-12-2019 19:00:00 | 4.80°C | Oeste |44.00 km/h | 94.00% | 841.60 hPa
  • 12-12-2019 18:00:00 | 4.30°C | Oeste |34.00 km/h | 94.00% | 841.30 hPa
  • 12-12-2019 17:00:00 | 4.10°C | Oeste |36.00 km/h | 93.00% | 841.20 hPa
  • 12-12-2019 16:00:00 | 3.60°C | Oeste |31.00 km/h | 92.00% | 841.20 hPa
  • 12-12-2019 15:00:00 | 3.30°C | Oeste |27.00 km/h | 90.00% | 841.50 hPa
  • 12-12-2019 14:00:00 | 2.90°C | Oeste |17.00 km/h | 88.00% | 842.10 hPa
  • 12-12-2019 13:00:00 | 2.80°C | Oeste |15.00 km/h | 84.00% | 842.90 hPa
    • diseño web asturias Información sobre el estado de las mareas, altura de la marejada, temperatura del agua y otros datos de Gijón en Asturias.

      Surf Gijón